Content
SEND FEEDBACK

Daily
Averages
Monthly
Summary
United States of America

GRAHAM, NORTH CAROLINA


Home > North America > United States > North Carolina
Elevation: 66 feet     Latitude: 36 04N     Longitude: 079 24W

WEATHER
 
SELECT A DAY
Number of Records: 171,827;   Date Range: 7/1/98 - 9/18/14
 
SHARE

PRINT THIS DATA

[ ← Previous Day ]
WEATHER ALMANAC - DECEMBER 22, 2013
[ Next Day → ]
[ °C ]   °F
Weather ElementAverageHighLow
Temperature69 °F75 °F (12:54 pm)63 °F (4:25 pm)
Dewpoint62.1 °F64 °F (5:54 am)57.9 °F (3:54 pm)
Humidity79.2 %90 % (4:38 pm)62 % (2:54 pm)
Barometer30.03 in30.08 in (4:25 pm)29.99 in (5:54 am)
Wind Speed10.1 mph16.1 mph (2:54 am)
Wind Gust27.6 mph (11:03 am)
Weather ElementAverage
Visibility9.4 mi
Wind DirectionS (178.7 °)

Weather ElementTotal
Precipitation---
Cooling Degree Days4 (Base 65)
Growing Degree Days19 (Base 50)
Averaged from 31 records on December 22, 2013
WEATHER CONDITIONS BREAKOUT
WIND DIRECTION BREAKOUT
WEATHER BY HOUR - DECEMBER 22, 2013
[ °C ]   °F
Local TimeTemperatureDewpointHumidityBarometerVisibilityWind DirectionWind SpeedGust SpeedPrecipitationEventsConditions
1:54 AM70.0 °F62.1 °F76 %30.00 in10.0 miSouth (180°)12.7 mph25.3 mphOvercast
2:54 AM70.0 °F62.1 °F76 %30.00 in10.0 miSouth (180°)16.1 mph26.5 mphOvercast
3:10 AM70.0 °F62.1 °F76 %30.02 in10.0 miSouth (180°)15.0 mph21.9 mphOvercast
3:21 AM70.0 °F62.1 °F76 %30.02 in10.0 miSouth (180°)13.8 mph23.0 mphOvercast
3:54 AM70.0 °F62.1 °F76 %30.01 in10.0 miSouth (190°)13.8 mph21.9 mphOvercast
4:54 AM70.0 °F63.0 °F78 %30.00 in10.0 miSouth (170°)10.4 mph18.4 mphOvercast
5:54 AM69.1 °F64.0 °F84 %29.99 in10.0 miSouth (180°)11.5 mph18.4 mph0.00 inMostly Cloudy
6:54 AM70.0 °F64.0 °F81 %30.00 in10.0 miSouth (190°)15.0 mph23.0 mphOvercast
7:54 AM70.0 °F64.0 °F81 %30.01 in10.0 miSouth (180°)13.8 mph21.9 mphOvercast
8:54 AM71.1 °F64.0 °F78 %30.02 in10.0 miSouth (190°)10.4 mphOvercast
9:54 AM72.0 °F64.0 °F76 %30.05 in10.0 miSouth (190°)10.4 mph25.3 mphOvercast
10:54 AM73.0 °F64.0 °F73 %30.05 in10.0 miSouth (190°)12.7 mph21.9 mph0.00 inOvercast
11:03 AM73.0 °F64.0 °F73 %30.07 in10.0 miSSW (200°)15.0 mph27.6 mphOvercast
11:32 AM73.0 °F64.0 °F73 %30.06 in10.0 miSouth (190°)11.5 mph19.6 mph0.00 inOvercast
11:54 AM73.0 °F63.0 °F71 %30.04 in10.0 miSSW (200°)16.1 mph25.3 mph0.00 inOvercast
12:24 PM73.9 °F64.0 °F71 %30.05 in10.0 miSSW (200°)10.4 mph21.9 mphMostly Cloudy
12:54 PM75.0 °F64.0 °F69 %30.02 in10.0 miSSW (200°)10.4 mph19.6 mphOvercast
1:26 PM73.9 °F63.0 °F68 %30.03 in10.0 miSSW (210°)8.1 mphOvercast
1:54 PM73.0 °F63.0 °F71 %30.01 in10.0 miSSW (210°)9.2 mph0.00 inOvercast
2:54 PM75.0 °F61.0 °F62 %30.01 in10.0 miSouth (180°)10.4 mph0.00 inMostly Cloudy
3:54 PM66.9 °F57.9 °F73 %30.06 in10.0 miWest (280°)8.1 mphOvercast
4:25 PM63.0 °F59.0 °F87 %30.08 in2.0 miSW (220°)9.2 mphRainHeavy Rain
4:38 PM63.0 °F60.1 °F90 %30.08 in4.0 miSouth (190°)4.6 mphRainLight Rain
4:54 PM63.0 °F60.1 °F90 %30.06 in8.0 miSouth (180°)5.8 mphRainLight Rain
5:54 PM63.0 °F60.1 °F90 %30.05 in10.0 miNorthRainLight Rain
6:54 PM63.0 °F60.1 °F90 %30.08 in9.0 miSSW (200°)3.5 mphRainLight Rain
7:54 PM63.0 °F60.1 °F90 %30.05 in10.0 miCalmOvercast
8:54 PM64.0 °F61.0 °F90 %30.03 in10.0 miSSE (150°)6.9 mphRainLight Rain
9:54 PM64.9 °F61.0 °F87 %30.04 in10.0 miSouth (190°)5.8 mphOvercast
10:54 PM64.0 °F61.0 °F90 %30.03 in10.0 miSE (140°)3.5 mphOvercast
11:54 PM64.9 °F62.1 °F90 %30.06 in9.0 miSSW (200°)9.2 mph18.4 mphRainLight Rain
Hourly data recorded from KBUY, located miles away from Graham, North Carolina







STORIES FROM OUR PARTNERS